Back to catalog

STARLINK-37323

AliveCommunicationsVLEO
NORAD 69516·PAYLOAD·🇺🇸 United States

Launched Jun 12, 2026 from Cape Canaveral Space Force Station

Loading…

Next Passes (next 24 hours)

TLE

FreshSource: CelesTrak SupGP

Epoch: Sep 14, 2026, 22:30 UTC

1 69516C 26133J   26257.93798611  .00039276  00000+0  11609-2 0  2570
2 69516  53.1561 255.7866 0001198  98.8671  94.6689 15.34358384    14

Track STARLINK-37323 in real time with AllMySat

Download on the App Store